Regional Weather Roundup
Issued by NWS

Home | Current Version | Previous Version | Text Only | Print | Product List | Glossary On
Versions: 1 2 3 4 5 6 7 8 9 10 11 12 13 14 15 16 17 18 19 20 21 22 23 24 25 26 27 28
000
ASUS42 KKEY 301310
RWRKEY

FLORIDA REGIONAL WEATHER ROUNDUP FOR THE FLORIDA KEYS
NATIONAL WEATHER SERVICE KEY WEST FLORIDA
900 AM EDT THU OCT 30 2014

...SOUTH FLORIDA AND THE KEYS...

CITY           SKY/WX    TMP DP  RH WIND       PRES   REMARKS
FORT MYERS     SUNNY     70  67  90 E3        29.97R
SW REGIONAL AP SUNNY     67  66  97 E5        29.98R
NAPLES         SUNNY     72  68  87 CALM      29.97R
MIAMI          MOSUNNY   77  67  71 NW5       29.98R
WEST KENDALL   SUNNY     77  70  79 CALM      29.98R
HOMESTEAD      SUNNY     74  67  78 N3        29.98R
MARATHON       SUNNY     79  70  74 NE5       29.97R
BOCA CHICA NAS MOSUNNY   79  70  74 E7        29.98R
KEY WEST INTL  CLOUDY    80  73  79 NE6       29.98R

...INTERNATIONAL WEATHER...

CITY           SKY/WX    TMP DP  RH WIND       PRES   REMARKS
NASSAU BAHAMAS MOSUNNY   73  66  78 CALM      29.96R
CANCUN MEXICO  MOSUNNY   73  72  94 NW6       29.96R
COZUMEL MEXICO MOSUNNY   75  73  94 N6        29.95R

ADJACENT COASTAL WATERS...

STATION/POSITION TIME  SKY/WX   TEMP    WIND        PRES    WAVE
                                AIR SEA DIR/SP/G            HT/PER
                 (UTC)          (F)     (DEG/KT/KT) (MB)    (FT/S)
PULASKI SHOAL LI 1200            79      50/  6/  7 1014.6R
SAND KEY         1240            77      70/  7/  8 1015.1R
SOMBRERO KEY     1300            77      30/  7/  8 1015.8R
LONG KEY         1156            77 78   30/  5/  6 1015.4R
MOLASSES REEF    1300            76 81  360/  7/  8 1015.1R
FOWEY ROCKS      1300            77 80  310/  8/  8 1015.2R
Buoy 42080       NOT AVBL

$$



USA.gov is the U.S. government's official web portal to all federal, state and local government web resources and services.